Regional Weather Roundup
Issued by NWS

Home | Current Version | Previous Version | Text Only | Print | Product List | Glossary On
Versions: 1 2 3 4 5 6 7 8 9 10 11 12 13 14 15 16 17 18 19 20 21 22 23 24 25 26 27 28 29 30 31 32 33 34 35 36 37 38 39 40 41 42 43 44 45 46 47 48 49 50
384
ASUS43 KDTX 241210
RWRMI
MICHIGAN HOURLY REGIONAL WEATHER ROUNDUP
NATIONAL WEATHER SERVICE DETROIT/PONTIAC MI
800 AM EDT FRI MAR 24 2017

NOTE: "FAIR" INDICATES FEW OR NO CLOUDS BELOW 12,000 FEET WITH NO
SIGNIFICANT WEATHER AND/OR OBSTRUCTION TO VISIBILITY.

MIZ047>049-052>055-059>063-066>070-074>076-081>083-241300-
SOUTHEAST LOWER MICHIGAN

CITY           SKY/WX    TMP DP  RH WIND       PRES   REMARKS
ADRIAN         CLOUDY    44  38  79 SW7       30.04R
6HR MIN TEMP:  38; 6HR MAX TEMP:  44; 6HR PCP:  0.04;

ALMA           PTCLDY    40  37  89 S3        29.94S
ANN ARBOR      PTCLDY    42  38  85 S9        30.01R
BAD AXE        LGT RAIN  36  33  89 CALM      29.98R
6HR MIN TEMP:  35; 6HR MAX TEMP:  37;

CARO           PTCLDY    45  37  75 CALM      29.96R
DETROIT CITY   CLOUDY    46  38  73 SW13      30.02R
6HR MIN TEMP:  38; 6HR MAX TEMP:  46; 6HR PCP:  0.04;

DETROIT        CLOUDY    44  38  79 SW12      30.03R
6HR MIN TEMP:  38; 6HR MAX TEMP:  46; 6HR PCP:  0.14;

FLINT          PTCLDY    47  37  68 SW10      29.97R
6HR MIN TEMP:  39; 6HR MAX TEMP:  47; 6HR PCP:  0.01;

GROSSE ILE     MOCLDY    47  38  72 SW10G17   30.02R
6HR MIN TEMP:  36; 6HR MAX TEMP:  47; 6HR PCP:  0.19;

HILLSDALE      PTCLDY    45  37  76 S14G23    30.01S
HOWELL         PTCLDY    46  37  71 S9        29.98S
6HR MIN TEMP:  37; 6HR MAX TEMP:  46; 6HR PCP:  0.01;


CITY           SKY/WX    TMP DP  RH WIND       PRES   REMARKS
JACKSON        CLOUDY    50  40  68 SW15G21   30.00R
6HR MIN TEMP:  39; 6HR MAX TEMP:  50;

LAMBERTVILLE   CLOUDY    51  41  67 SW8G18    30.04R
6HR MIN TEMP:  41; 6HR MAX TEMP:  51;

LANSING        CLOUDY    49  39  68 SW14      29.96S
6HR MIN TEMP:  38; 6HR MAX TEMP:  49; 6HR PCP: TRACE;

LAPEER         FAIR      47  38  69 SW10      29.97S
6HR MIN TEMP:  37; 6HR MAX TEMP:  48;

MASON          CLOUDY    48  40  75 SW6       29.97R
MONROE         PTCLDY    49  41  73 SW12G23   30.02S
6HR MIN TEMP:  38; 6HR MAX TEMP:  49; 6HR PCP:  0.26;

MT. CLEMENS    MOCLDY    42  38  86 SW7       29.99R
6HR MIN TEMP:  35; 6HR MAX TEMP:  43; 6HR PCP:  0.04;

PONTIAC        CLOUDY    45  37  73 S6        29.98S
6HR MIN TEMP:  35; 6HR MAX TEMP:  45; 6HR PCP:  0.05;

PORT HOPE        N/A     35  32  88 SE7       29.97R WCI  29
6HR MIN TEMP:  33; 6HR MAX TEMP:  37; 6HR PCP:  0.03;

PORT HURON     CLOUDY    39  34  81 S6        30.00S WCI  35
TRI CITIES     MOCLDY    39  37  92 N5        29.97R FOG
6HR MIN TEMP:  38; 6HR MAX TEMP:  41; 6HR PCP: TRACE;

MIDLAND        MOCLDY    38  35  89 CALM      29.96R
6HR MIN TEMP:  38; 6HR MAX TEMP:  40;

TROY           PTCLDY    45  37  73 SW8       30.02S
SAGINAW HB     PTCLDY    39  34  81 N5        29.96R
$$
MIZ043>046-050>051-056>058-064>065-071>073-077>080-241300-
SOUTHWEST LOWER MICHIGAN

CITY           SKY/WX    TMP DP  RH WIND       PRES   REMARKS
BATTLE CREEK   CLOUDY    49  41  74 S12       29.98R
6HR MIN TEMP:  41; 6HR MAX TEMP:  49;

BENTON HARBOR  PTCLDY    53  41  63 S12G21    29.96R
6HR MIN TEMP:  42; 6HR MAX TEMP:  53;

BIG RAPIDS     CLOUDY    39  37  92 CALM      29.94R FOG
6HR MIN TEMP:  36; 6HR MAX TEMP:  39;

COLDWATER      MOCLDY    51  40  67 S8G17     30.01R
6HR MIN TEMP:  41; 6HR MAX TEMP:  51;

FREMONT        CLOUDY    45  38  77 W6        29.94R
HOLLAND        CLOUDY    54  42  64 SW17G25   29.92S
6HR MIN TEMP:  43; 6HR MAX TEMP:  54;

GRAND RAPIDS   CLOUDY    48  39  71 S6        29.93S
6HR MIN TEMP:  42; 6HR MAX TEMP:  48;

IONIA          FAIR      43  37  77 S7        29.93F
6HR MIN TEMP:  37; 6HR MAX TEMP:  44;

KALAMAZOO      CLOUDY    50  39  66 S15       29.98R
6HR MIN TEMP:  42; 6HR MAX TEMP:  50;

LUDINGTON      CLOUDY    44  37  77 S8        29.91F
6HR MIN TEMP:  39; 6HR MAX TEMP:  46;

MARSHALL       PTCLDY    49  40  70 S10       29.98S
6HR MIN TEMP:  40; 6HR MAX TEMP:  51;

MOUNT PLEASANT MOCLDY    37  35  94 CALM      29.95R FOG
6HR MIN TEMP:  37; 6HR MAX TEMP:  38; 6HR PCP:  0.01;

MUSKEGON       CLOUDY    48  38  68 SW14G20   29.93R
6HR MIN TEMP:  42; 6HR MAX TEMP:  50; 6HR PCP:  0.01;

SOUTH HAVEN    CLOUDY    53  42  66 S10G16    29.94S
$$
MIZ016>042-241300-
NORTHERN LOWER MICHIGAN

CITY           SKY/WX    TMP DP  RH WIND       PRES   REMARKS
ALPENA         FRZ RAIN  33  32  96 SE7       29.94F FOG     WCI  27
6HR MIN TEMP:  32; 6HR MAX TEMP:  33; 6HR PCP:  0.23;

BEAVER ISLAND  LGT RAIN  33  32  99 NE3       29.90S
6HR MIN TEMP:  32; 6HR MAX TEMP:  34;

BELLAIRE       CLOUDY    35  34  95 CALM      29.91F FOG
6HR MIN TEMP:  33; 6HR MAX TEMP:  35;

CADILLAC       CLOUDY    41  36  83 SW8       29.89F
CHARLEVOIX     MIX PCPN  34  34 100 E3        29.93F
6HR MIN TEMP:  33; 6HR MAX TEMP:  35;

FRANKFORT      CLOUDY    40  35  82 CALM      29.90F
GAYLORD        CLOUDY    35  30  82 SW7       29.90F HAZE    WCI  29
6HR MIN TEMP:  33; 6HR MAX TEMP:  35; 6HR PCP:  0.28;

GRAYLING       CLOUDY    34  32  93 CALM      29.93R FOG
HARBOR SPRINGS CLOUDY    32  32  99 CALM      29.91R FOG
HOUGHTON LAKE  CLOUDY    37  32  82 S3        29.92F
6HR MIN TEMP:  35; 6HR MAX TEMP:  37; 6HR PCP: TRACE;

MANISTEE       CLOUDY    43  35  73 CALM      29.90F
OSCODA         CLOUDY    35  33  92 S7        29.94F WCI  29
6HR MIN TEMP:  34; 6HR MAX TEMP:  36; 6HR PCP:  0.04;

PELLSTON       FRZ RAIN  33  31  92 CALM      29.93S
6HR MIN TEMP:  32; 6HR MAX TEMP:  33; 6HR PCP:  0.21;

ROGERS CITY    MIX PCPN  33  31  93 S5          N/A  WCI  28
TRAVERSE CITY  CLOUDY    37  35  92 CALM      29.91S FOG
6HR MIN TEMP:  36; 6HR MAX TEMP:  37; 6HR PCP:  0.04;

$$
MIZ007>008-015-241300-
EASTERN UPPER MICHIGAN

CITY           SKY/WX    TMP DP  RH WIND       PRES   REMARKS
KINROSS        MIX PCPN  32  31  96 SE5       29.93R FOG     WCI  27
6HR MIN TEMP:  31; 6HR MAX TEMP:  32; 6HR PCP:  0.08;

MACKINAC ISLAN LGT SNOW  32  32 100 CALM      29.92S
6HR MIN TEMP:  31; 6HR MAX TEMP:  32; 6HR PCP:  0.33;

NEWBERRY       LGT SNOW  32  31  97 CALM      29.91S
6HR MIN TEMP:  31; 6HR MAX TEMP:  32; 6HR PCP:  0.04;

S. S. MARIE    LGT RAIN  33  31  92 E3        29.93F FOG
6HR MIN TEMP:  33; 6HR MAX TEMP:  33; 6HR PCP:  0.06;

MUNISING         N/A     33  32  96 CALM      29.90R
6HR MIN TEMP:  33; 6HR MAX TEMP:  34; 6HR PCP:  0.18;

$$
MIZ004>006-011>014-085-241300-
CENTRAL UPPER MICHIGAN

CITY           SKY/WX    TMP DP  RH WIND       PRES   REMARKS
MANISTIQUE     LGT SNOW  32  32 100 CALM      29.90S
ESCANABA       LGT RAIN  34  33  96 CALM      29.89F FOG
6HR MIN TEMP:  33; 6HR MAX TEMP:  34; 6HR PCP:  0.19;

MENOMINEE        N/A    N/A N/A N/A MISG        N/A
SAWYER-GWINN   FRZ DRZL  32  32 100 CALM      29.88F
$$
MIZ001>003-009>011-084-241300-
WESTERN UPPER MICHIGAN

CITY           SKY/WX    TMP DP  RH WIND       PRES   REMARKS
IRON MOUNTAIN  FRZ RAIN  32  29  88 N3        29.86F FOG
6HR MIN TEMP:  31; 6HR MAX TEMP:  33; 6HR PCP:  0.04;

HOUGHTON       CLOUDY    33  31  92 W7        29.89R FOG     WCI  27
6HR MIN TEMP:  32; 6HR MAX TEMP:  33; 6HR PCP:  0.05;

COPPER HARBOR    N/A     33  31  92 VRB3      29.90R
6HR MIN TEMP:  32; 6HR MAX TEMP:  34; 6HR PCP:  0.09;

IRONWOOD       CLOUDY    34  32  93 W3        29.91R FOG
6HR MIN TEMP:  32; 6HR MAX TEMP:  33; 6HR PCP: TRACE;

$$

ABBREVIATIONS USED IN REMARKS
   TC - TEMPERATURE IN CELSIUS
  WCI - WIND CHILL INDEX
   HX - HEAT INDEX
  VSB - VISIBILITY





USA.gov is the U.S. government's official web portal to all federal, state and local government web resources and services.